Location: Baix
(44.7118°N, 4.7648°E)
Time: 03:21:18
(UTC+00:00)

Cosmos 1953 - Pass Details

Date: 07 August 2020
Orbit: 538 x 559 km, 82.5° (Epoch: 27 September)

Event Time Altitude Azimuth Distance (km) Brightness Sun altitude
Exits shadow 03:35:05 12° 214° (SW) 1,688 4.2 -10.0°
Maximum altitude 03:38:31 40° 283° (WNW) 820 2.9 -9.5°
Drops below altitude 10° 03:42:22 10° 354° (N) 1,844 5.4 -8.9°
Sets 03:44:39 0° 2° (N) 2,747 6.4 -8.6°
